Regional Weather Roundup
Issued by NWS

Home | Current Version | Previous Version | Text Only | Print | Product List | Glossary On
Versions: 1 2 3 4 5 6 7 8 9 10 11 12 13 14 15 16 17 18 19 20 21 22 23 24 25 26 27 28 29 30 31 32 33 34 35 36 37 38 39 40 41 42 43 44 45 46 47 48 49 50
000
ASUS45 KREV 030310
RWRNV
NEVADA REGIONAL WEATHER ROUNDUP
NATIONAL WEATHER SERVICE RENO NV
800 PM PDT WED SEP 02 2015

NOTE: "FAIR" INDICATES FEW OR NO CLOUDS BELOW 12,000 FEET WITH NO
SIGNIFICANT WEATHER AND/OR OBSTRUCTIONS TO VISIBILITY.

NVZ001-003-004-030400-
WESTERN NEVADA

CITY           SKY/WX    TMP DP  RH WIND       PRES   REMARKS
RENO           PTCLDY    73  33  23 W16G26    29.90R
CARSON CITY    FAIR      70  36  28 W7G18     29.94R
MINDEN         FAIR      68  32  26 W20G25    29.94R
SLIDE MTN        N/A     46  28  49 W44         N/A
PYRAMID LAKE     N/A     79 N/A N/A CALM        N/A
FALLON         PTCLDY    79  30  16 W14G25    29.83S
LOVELOCK       CLEAR     79  32  18 W17       29.83R
HAWTHORNE      CLEAR     84  32  15 N6        29.81R
$$

NVZ002-CAZ072-073-030400-
NORTHERN AND CENTRAL SIERRA

CITY           SKY/WX    TMP DP  RH WIND       PRES   REMARKS
S. LAKE TAHOE  PTCLDY    63  35  35 S9        30.05S
TRUCKEE        CLEAR     57  34  41 SW6       30.05R
SQUAW VLY 8000   N/A     50  36  57 S13         N/A
SUSANVILLE     CLEAR     72  32  23 SW17G23   29.91S
BLUE CANYON    CLEAR     60  36  40 S6        30.04F
MAMMOTH LAKES  FAIR      64  32  29 W9G25     30.09S
BRIDGEPORT     FAIR      61  33  35 VRB3      30.06R
$$

NVZ030-031-036-030400-
NORTHERN NEVADA

CITY           SKY/WX    TMP DP  RH WIND       PRES   REMARKS
ELKO           CLEAR     73  23  15 S5        29.86R
WINNEMUCCA     CLEAR     75  32  20 W14       29.82R
WENDOVER       CLEAR     82  34  17 SW5       29.80S
$$

NVZ035-037-030400-
CENTRAL NEVADA

CITY           SKY/WX    TMP DP  RH WIND       PRES   REMARKS
ELY            PTCLDY    75  30  19 S21       30.02R
EUREKA           N/A     74  12   9 S12       29.95R
$$

NVZ013-014-030400-
SOUTH CENTRAL NEVADA

CITY           SKY/WX    TMP DP  RH WIND       PRES   REMARKS
TONOPAH        CLEAR     75  16  10 S12       29.98R
$$

NVZ017-020-022-030400-
SOUTHERN NEVADA

CITY           SKY/WX    TMP DP  RH WIND       PRES   REMARKS
LAS VEGAS      PTCLDY    93  38  14 S12G21    29.77R
N. LAS VEGAS   PTCLDY    92  39  15 S22       29.79R
NELLIS AFB     PTCLDY    93  40  15 S23       29.77R
HENDERSON        N/A    N/A N/A N/A MISG        N/A
MERCURY        CLEAR     86  29  12 S16       29.87R
$$


USA.gov is the U.S. government's official web portal to all federal, state and local government web resources and services.